Pilanesberg International Airport

Jump to: basic info | weather | frequencies | runways | comments

Related pages: nearby airports | nearby navaids | notams | map

Basic information (top)

Codes: NTY FAPN
Location: lon -25.333799, lat 27.173401, elev 3,412 ft / 1,040 m msl
Status: small_airport
Scheduled airline service: no
Links: Wikipedia Mobile

Weather (top)

Current conditions (rec'd 2015/03/27 20:00Z):

FAPN 272000Z AUTO 16003KT //// // ////// 18/14 Q1018

Airport forecast (rec'd 2015/02/28 07:39Z):

TAF FAPN 280600Z 2807/2818 03006KT CAVOK 
     FM280900 30008KT 9999 SCT040 PROB40 
      TEMPO 2811/2818 5000 TSRA FEW035CB TX29/2813ZTN20/2818Z

Frequencies (top)

Verify before use: may be inaccurate or out of date.

TWR: 118.4 MHz (TWR)

Runways (top)

05/23: 9,022 x 98 ft (2,750 x 30 m) — paved — lighted

Latest comments (top)

For all First Time Night Flyers!!!: Pilanesberg Int., amazing airport ... [read]

Flighs: Kindly request if you do have flights ... [read]

More... (top)

See also NOTAMs and nearby airports and navaids, or visit the Pilanesberg International Airport page at the main OurAirports website..